Elmira, NY

2:48 AM EDT on April 25, 2017 (GMT -0400)
Elmira-Corning Regional

Weather History for KELM - August, 2014

Change the Weather History Date:

Thursday, August 7, 2014

  Actual Average Record
Temperature  
Mean Temperature 64 °F -  
Max Temperature 78 °F 79 °F 97 °F (2001)
Min Temperature 50 °F 55 °F 40 °F (1951)
Degree Days  
Heating Degree Days 2    
Growing Degree Days 14 (Base 50)    
Moisture  
Dew Point 53 °F    
Average Humidity 77    
Maximum Humidity 100    
Minimum Humidity 39    
Precipitation  
Precipitation 0.00 in - - ()
Sea Level Pressure  
Sea Level Pressure 30.03 in    
Wind  
Wind Speed 5 mph (WNW)    
Max Wind Speed 14 mph    
Max Gust Speed 21 mph    
Visibility 10 miles    
Events      
Averages and records for this station are not official NWS values.
T = Trace of Precipitation, MM = Missing Value Source: NWS Daily Summary

Daily Weather History Graph

Daily Weather History Graph

Search for Another Location

Airport or City:

Trip Planner

Search our weather history database for the weather conditions in past years. The results will help you decide how hot, cold, wet, or windy it might be!

Date:

Astronomy

Aug. 07, 2014 Rise Set
Actual Time 6:06 AM EDT 8:19 PM EDT
Civil Twilight 5:35 AM EDT 8:50 PM EDT
Nautical Twilight 4:57 AM EDT 9:28 PM EDT
Astronomical Twilight 4:15 AM EDT 10:10 PM EDT
Moon 5:34 PM EDT (8/7) 2:34 AM EDT (8/7)
Length of Visible Light 15h 14m
Length of Day
14h 12m
Waxing Gibbous, 86% of the Moon is Illuminated
Aug 7
Waxing Gibbous
Aug 10
Full
Aug 17
Last Quarter
Aug 25
New
Sep 2
First Quarter

Hourly Weather History & Observations

Time (EDT) Temp. Dew Point Humidity Pressure Visibility Wind Dir Wind Speed Gust Speed Precip Events Conditions
12:53 AM 51.1 °F 51.1 °F 100% 30.00 in 10.0 mi WSW 3.5 mph - N/A   Clear
1:53 AM 55.0 °F 53.1 °F 93% 29.99 in 10.0 mi SW 5.8 mph - N/A   Clear
2:53 AM 54.0 °F 54.0 °F 100% 29.99 in 10.0 mi West 3.5 mph - N/A   Clear
3:53 AM 52.0 °F 51.1 °F 97% 29.99 in 10.0 mi West 3.5 mph - N/A   Clear
4:53 AM 50.0 °F 48.9 °F 96% 30.00 in 8.0 mi Calm Calm - N/A   Clear
5:20 AM 53.6 °F 53.6 °F 100% 30.01 in 8.0 mi WSW 4.6 mph - N/A   Partly Cloudy
5:45 AM 53.6 °F 53.6 °F 100% 30.01 in 8.0 mi Calm Calm - N/A   Mostly Cloudy
5:53 AM 52.0 °F 52.0 °F 100% 30.00 in 8.0 mi West 3.5 mph - N/A   Mostly Cloudy
6:07 AM 53.6 °F 53.6 °F 100% 30.01 in 9.0 mi WSW 4.6 mph - N/A   Scattered Clouds
6:53 AM 52.0 °F 52.0 °F 100% 30.02 in 8.0 mi Calm Calm - N/A   Partly Cloudy
7:53 AM 57.0 °F 55.0 °F 93% 30.03 in 10.0 mi WSW 5.8 mph - N/A   Clear
8:53 AM 61.0 °F 55.9 °F 83% 30.03 in 10.0 mi WSW 9.2 mph - N/A   Clear
9:53 AM 66.9 °F 57.9 °F 73% 30.02 in 10.0 mi WSW 8.1 mph - N/A   Scattered Clouds
10:53 AM 70.0 °F 59.0 °F 68% 30.04 in 10.0 mi East 5.8 mph - N/A   Mostly Cloudy
11:53 AM 75.0 °F 55.9 °F 51% 30.03 in 10.0 mi North 13.8 mph 19.6 mph N/A   Partly Cloudy
12:53 PM 75.0 °F 55.0 °F 50% 30.04 in 10.0 mi NNW 9.2 mph - N/A   Scattered Clouds
1:53 PM 75.9 °F 52.0 °F 43% 30.02 in 10.0 mi NNW 9.2 mph 19.6 mph N/A   Partly Cloudy
2:53 PM 77.0 °F 50.0 °F 39% 30.02 in 10.0 mi NNW 12.7 mph 20.7 mph N/A   Scattered Clouds
3:53 PM 75.9 °F 50.0 °F 40% 30.01 in 10.0 mi NNW 9.2 mph 17.3 mph N/A   Clear
4:53 PM 75.0 °F 50.0 °F 41% 30.02 in 10.0 mi North 8.1 mph - N/A   Clear
5:53 PM 75.0 °F 52.0 °F 44% 30.01 in 10.0 mi NNW 10.4 mph - N/A   Clear
6:53 PM 73.0 °F 51.1 °F 46% 30.03 in 10.0 mi North 5.8 mph - N/A   Clear
7:53 PM 64.9 °F 55.0 °F 70% 30.05 in 10.0 mi North 3.5 mph - N/A   Clear
8:53 PM 60.1 °F 55.0 °F 83% 30.07 in 10.0 mi West 4.6 mph - N/A   Clear
9:53 PM 59.0 °F 55.0 °F 87% 30.08 in 10.0 mi SW 3.5 mph - N/A   Clear
10:53 PM 57.0 °F 54.0 °F 89% 30.08 in 10.0 mi Calm Calm - N/A   Clear
11:53 PM 55.9 °F 53.1 °F 90% 30.09 in 10.0 mi Calm Calm - N/A   Clear